Location: Newark
(54.5739°N, 1.2333°W)
Time: 17:05:34
(UTC+00:00)

Envisat - Visible Passes

Search period start: 21 November 2019 00:00
Search period end: 01 December 2019 00:00
Orbit: 764 x 766 km, 98.1° (Epoch: 21 November)

Date Brightness Start Highest point End Pass type
(mag) Time Alt. Az. Time Alt. Az. Time Alt. Az.
21 Nov 4.8 06:24:34 10° NNE 06:29:16 36° E 06:33:55 10° SSE visible
21 Nov 3.0 17:45:51 10° SSE 17:50:57 89° ENE 17:56:04 10° NNW visible
21 Nov 5.7 19:27:21 10° SW 19:30:43 17° W 19:34:04 10° NW visible
22 Nov 5.8 05:48:26 10° NE 05:52:06 20° E 05:55:44 10° SE visible
22 Nov 3.2 17:09:22 10° SE 17:14:15 49° ENE 17:19:10 10° N visible
22 Nov 4.8 18:48:59 10° SSW 18:53:30 32° W 18:58:04 10° NNW visible
23 Nov 3.9 06:49:54 10° NNE 06:54:55 56° E 06:59:54 10° S visible
23 Nov 3.8 16:33:27 10° ESE 16:37:44 28° ENE 16:42:04 10° N visible
23 Nov 3.5 18:11:29 10° S 18:16:30 60° WSW 18:21:33 10° NNW visible
23 Nov 6.2 19:55:21 10° W 19:56:38 11° W 19:57:55 10° WNW visible
24 Nov 5.1 06:13:25 10° NNE 06:17:54 30° E 06:22:19 10° SSE visible
24 Nov 2.9 17:34:36 10° SSE 17:39:41 75° ENE 17:44:47 10° NNW visible
24 Nov 5.5 19:15:28 10° SW 19:19:17 21° W 19:23:06 10° NW visible
25 Nov 6.0 05:37:31 10° NE 05:40:40 16° E 05:43:48 10° ESE visible
25 Nov 3.4 16:58:18 10° SE 17:03:03 41° ENE 17:07:49 10° N visible
25 Nov 4.4 18:37:24 10° SSW 18:42:08 38° W 18:46:54 10° NNW visible
26 Nov 4.2 06:38:40 10° NNE 06:43:35 46° E 06:48:28 10° S visible
26 Nov 3.2 18:00:07 10° S 18:05:11 72° WSW 18:10:18 10° NNW visible
26 Nov 6.0 19:42:43 10° WSW 19:45:10 13° W 19:47:36 10° NW visible
27 Nov 5.4 06:02:19 10° NE 06:06:31 25° E 06:10:40 10° SE visible
27 Nov 3.0 17:23:25 10° SSE 17:28:25 63° ENE 17:33:28 10° N visible
27 Nov 5.2 19:03:42 10° SW 19:07:52 25° W 19:12:04 10° NW visible
28 Nov 6.1 05:26:46 10° NE 05:29:13 13° E 05:31:39 10° ESE visible
28 Nov 3.4 07:04:05 10° NNE 07:09:11 72° ESE 07:14:16 10° S visible
28 Nov 3.6 16:47:16 10° SE 16:51:50 35° ENE 16:56:26 10° N visible
28 Nov 4.0 18:25:55 10° S 18:30:47 46° W 18:35:42 10° NNW visible
29 Nov 4.6 06:27:28 10° NNE 06:32:14 38° E 06:36:58 10° SSE visible
29 Nov 3.0 17:48:48 10° SSE 17:53:54 86° WSW 17:59:01 10° NNW visible
29 Nov 5.8 19:30:34 10° SW 19:33:42 16° W 19:36:52 10° NW visible
30 Nov 5.7 05:51:16 10° NE 05:55:06 21° E 05:58:54 10° SE visible
30 Nov 3.1 17:12:16 10° SE 17:17:11 52° ENE 17:22:08 10° N visible
30 Nov 4.9 18:52:02 10° SSW 18:56:29 30° W 19:00:57 10° NNW visible
